AirNav   Air Wisconsin Airman Trainee
 
 371 users online  

W94 Camp Peary Landing Strip Airport
Williamsburg, Virginia, USA

GOING TO WILLIAMSBURG?


FAA INFORMATION EFFECTIVE 28 MARCH 2019

Location

FAA Identifier: W94
Lat/Long: 37-18-46.0594N / 076-38-17.5821W
37-18.767657N / 076-38.293035W
37.3127943 / -76.6382172
(estimated)
Elevation: 40.8 ft. / 12 m (estimated)
Variation: 11W (2010)
From city: 3 miles NE of WILLIAMSBURG, VA
Time zone: UTC -4 (UTC -5 during Standard Time)
Zip code: 23188

Airport Operations

Airport use: Private use, THIS FLD IS DOD RESTRICTED.
Activation date: 07/1958
Control tower: no
ARTCC: WASHINGTON CENTER
FSS: LEESBURG FLIGHT SERVICE STATION
NOTAMs facility: DCA (NOTAM-D service available)
Attendance: MON-FRI 0800-1630
Wind indicator: yes
Segmented circle: no
Lights: SS-SR

Airport Communications

NORFOLK APPROACH: 125.7
NORFOLK DEPARTURE: 125.7
WX AWOS-3 at JGG (6 nm SW): 120.625 (757-220-8810)
WX ASOS at PHF (13 nm SE): PHONE 757-874-3682
WX AWOS-3 at FYJ (14 nm NW): 132.825 (804-785-2307)
WX AWOS-3 at W75 (20 nm NE): 118.45 (804-758-8592)
  • APCH/DEP SVCS PRVDD BY ORF APCH ON 125.7/335.625.

Nearby radio navigation aids

VOR radial/distance  VOR name  Freq  Var
HCMr164/8.9HARCUM VORTAC108.8007W
HPWr098/22.8HOPEWELL VORTAC112.0006W
CCVr276/30.6CAPE CHARLES VORTAC112.2010W
ORFr327/32.8NORFOLK VORTAC116.9007W
RICr118/34.4RICHMOND VOR/DME114.1009W

 
NDB name  Hdg/Dist  Freq  Var  ID
WAKEFIELD052/26.327411WAKQ .- -.- --.-

Airport Services

Airframe service: NONE
Powerplant service: NONE

Runway Information

Runway 5/23

Dimensions: 5018 x 151 ft. / 1529 x 46 m
FLD CLSD TO ALL CIV & MIL ACFT WO PRIOR APVL OF BASE COMDR.
Surface: asphalt
Runway edge lights: low intensity
RUNWAY 5  RUNWAY 23
Latitude: 37-18.448248N37-19.087063N
Longitude: 076-38.621737W076-37.964333W
Elevation: 40.8 ft.31.3 ft.
Traffic pattern: leftleft
Visual slope indicator: 4-light PAPI on left4-light PAPI on left
Touchdown point: yes, no lightsyes, no lights

Airport Ownership and Management from official FAA records

Ownership: U.S. Army
Owner: US ARMY AERONAUTICAL SVCS AGENCY
FT BELVOIR, VA 22060
Manager: DAVID J CROMLEY
AFETA-CAMP PEARY
WILLIAMSBURG, VA 23185
Phone 804-229-2121
COLONEL INFANTRY.

Additional Remarks

CAUTION: FLD RSTD, PPR BY WRITTEN REQ TO BASE COMDR, ATTN: AIR OPS. EXC WHEN OPR UNDER PRIOR PERMS AUTH, PILOTS SHOULD MAINT AT LEAST 3000 FT ABV THE ARPT ELEV WITHIN 5 NM.
FOR CD CTC NORFOLK APCH AT 757-464-0757.

Instrument Procedures

NOTE: All procedures below are presented as PDF files. If you need a reader for these files, you should download the free Adobe Reader.

NOT FOR NAVIGATION. Please procure official charts for flight.
FAA instrument procedures published for use from 28 March 2019 at 0901Z to 25 April 2019 at 0900Z.

 
IAPs - Instrument Approach Procedures
RNAV (GPS) RWY 05   download (165KB)
RNAV (GPS) RWY 23   download (97KB)
VOR-A   download (91KB)
NOTE: Special Take-Off Minimums/Departure Procedures apply   download (140KB)

Other nearby airports with instrument procedures:

KJGG - Williamsburg-Jamestown Airport (6 nm SW)
KFAF - Felker Army Airfield (11 nm S)
KPHF - Newport News/Williamsburg International Airport (13 nm SE)
KFYJ - Middle Peninsula Regional Airport (14 nm NW)
KLFI - Langley Air Force Base (19 nm SE)
W75 - Hummel Field Airport (20 nm NE)
 
Loc | Ops | Rwys | IFR | FBO | Links
Com | Nav | Svcs | Stats | Notes
Area around W94 (Camp Peary Landing Strip Airport)
 
Road maps at: MapQuest Bing Google
 
Aerial photo
WARNING: Photo may not be current or correct
Aerial photo of W94 (Camp Peary Landing Strip Airport)
Photo by Glenn Woodell, of NASA Langley Research Center
Photo taken 10-Apr-2014
looking south.

Do you have a better or more recent aerial photo of Camp Peary Landing Strip Airport that you would like to share? If so, please send us your photo.

 
Sectional chart

 
Airport distance calculator
Flying to Camp Peary Landing Strip Airport? Find the distance to fly.

From to W94

Sunrise and sunset
Times for 24-Apr-2019
 Local
(UTC-4)
 Zulu
(UTC)
Morning civil twilight05:5409:54
Sunrise06:2110:21
Sunset19:4823:48
Evening civil twilight20:1600:16

Current date and time
Zulu (UTC)  24-Apr-2019 06:07:42
Local (UTC-4)  24-Apr-2019 02:07:42
 
METAR
KJGG 
6nm SW 
240555Z AUTO 24005KT 10SM CLR 22/13 A2985 RMK AO1
KFAF 
12nm S 
240456Z AUTO 20004KT 10SM CLR 20/13 A2984 RMK AO2 SLP108 T01970134 402690115 $
KPHF 
13nm SE 
240554Z AUTO 21010KT 10SM CLR 19/13 A2985 RMK AO2 SLP108 T01890128 10233 20189 58006
KFYJ 
14nm NW 
240555Z AUTO 23009KT 10SM CLR 21/14 A2983 RMK AO1 T02070136 10236 20207 402720070
KW75 
20nm NE 
240555Z AUTO 21008G14KT 190V250 10SM CLR 21/14 A2981 RMK AO1 T02120135 10215 20185
KLFI 
20nm SE 
240456Z AUTO 20013KT 10SM CLR 19/13 A2986 RMK AO2 SLP118 T01930132 402700116 $
TAF
KFAF 
12nm S 
231800Z 2318/2424 27009KT 9999 FEW200 QNH2991INS BECMG 2402/2403 20009KT 9999 FEW200 WS020/24035KT QNH2990INS BECMG 2406/2407 20009KT 9999 SCT170 QNH2985INS BECMG 2412/2413 30012G18KT 9999 FEW065 SCT120 QNH2989INS BECMG 2418/2419 33010G15KT 9000 -SHRA SCT030 BKN050 QNH2986INS TX26/2320Z TN18/2408Z LAST NO AMDS AFT 2403 NEXT 2410
KPHF 
13nm SE 
240520Z 2406/2506 23011KT P6SM BKN250 FM241800 36006KT P6SM SCT050 BKN150 FM242100 04006KT P6SM BKN120 FM250000 10005KT P6SM BKN200
KLFI 
20nm SE 
240223Z 2402/2507 20012KT 9999 FEW250 QNH2982INS BECMG 2409/2410 24009KT 9999 BKN150 QNH2982INS BECMG 2416/2417 VRB06KT 9999 BKN035 QNH2982INS TX25/2417Z TN17/2411Z
NOTAMs
Click for the latest NOTAMs
NOTAMs are issued by the DoD/FAA and will open in a separate window not controlled by AirNav.

 

 
 

Would you like to see your business listed on this page?

 If your business provides an interesting product or service to pilots, flight crews, aircraft, or users of the Camp Peary Landing Strip Airport, you should consider listing it here.  To start the listing process, click on the button below
 
Add a business
 

Other Pages about Camp Peary Landing Strip Airport

Update a link
 
Copyright © AirNav, LLC. All rights reserved. Privacy Policy  Contact